CW7693 Weather Reports


Display with metric or nautical units.
time (UTC)temp
F
wind
direction
speed
MPH
gust
MPH
rain 1hr
in
rain 24hr
in
rain mn
in
humidity
%
barometer
mb
20260510090004 67 300 2.0 7.0 0.00 0.00 0.00 53 1007.7
20260510084605 65 360 3.0 5.0 0.00 0.00 0.00 56 1007.9
20260510083003 65 296 1.0 4.0 0.00 0.00 0.00 53 1008.0
20260510081603 65 319 0.0 4.0 0.00 0.00 0.00 54 1008.1
20260510080002 63 134 1.0 2.0 0.00 0.00 0.00 52 1008.3
20260510074603 60 135 0.0 3.0 0.00 0.00 0.00 60 1008.5
20260510073002 58 360 2.0 4.0 0.00 0.00 0.00 63 1008.5
20260510071602 57 150 2.0 4.0 0.00 0.00 0.00 68 1008.6
20260510070003 55 360 2.0 4.0 0.00 0.00 0.00 75 1008.7
20260510064603 52 360 3.0 6.0 0.00 0.00 0.00 77 1008.8
20260510063003 51 360 3.0 5.0 0.00 0.00 0.00 79 1009.1
20260510061606 51 360 2.0 4.0 0.00 0.00 0.00 78 1009.1
20260510060006 49 360 2.0 6.0 0.00 0.00 0.00 81 1009.4
20260510054617 48 360 3.0 6.0 0.00 0.00 0.00 83 1009.6
20260510053002 47 131 2.0 5.0 0.00 0.00 0.00 84 1009.8
20260510051603 47 155 2.0 5.0 0.00 0.00 0.00 84 1009.8
20260510050002 46 148 3.0 5.0 0.00 0.00 0.00 86 1009.9
20260510044604 45 168 3.0 6.0 0.00 0.00 0.00 86 1010.1
20260510043006 46 152 3.0 5.0 0.00 0.00 0.00 87 1010.1
20260510041637 45 142 3.0 6.0 0.00 0.00 0.00 87 1010.2
20260510040004 46 171 1.0 5.0 0.00 0.00 0.00 86 1010.4
20260510034607 46 155 2.0 4.0 0.00 0.00 0.00 86 1010.4
20260510033121 46 157 3.0 5.0 0.00 0.00 0.00 86 1010.5
20260510031502 46 169 2.0 6.0 0.00 0.00 0.00 86 1010.6
20260510024502 46 147 3.0 7.0 0.00 0.00 0.00 87 1010.6
20260510023102 46 140 4.0 6.0 0.00 0.00 0.00 87 1010.8
20260510021505 46 151 3.0 7.0 0.00 0.00 0.00 87 1010.8
20260510020112 47 169 3.0 6.0 0.00 0.00 0.00 86 1010.8
20260510014504 47 136 2.0 5.0 0.00 0.27 0.00 86 1010.9
20260510013106 47 141 2.0 6.0 0.00 0.27 0.00 86 1011.0
20260510011504 47 136 2.0 6.0 0.00 0.27 0.00 86 1011.0
20260510004503 48 136 4.0 7.0 0.00 0.27 0.00 86 1010.8
20260510003102 48 152 4.0 6.0 0.00 0.27 0.00 85 1010.9
20260510001505 49 138 3.0 7.0 0.00 0.27 0.00 84 1010.9
20260509234507 49 142 3.0 5.0 0.00 0.27 0.00 84 1011.3
20260509233102 50 146 3.0 7.0 0.00 0.27 0.00 83 1011.5
20260509231502 50 128 3.0 6.0 0.00 0.27 0.00 82 1011.7
20260509230103 50 153 2.0 7.0 0.00 0.27 0.00 82 1011.8
20260509224502 51 148 2.0 4.0 0.00 0.27 0.00 80 1011.9
20260509223104 52 145 1.0 5.0 0.00 0.27 0.00 80 1011.9
20260509221504 52 154 2.0 4.0 0.00 0.27 0.00 79 1012.0
20260509214503 53 146 2.0 4.0 0.00 0.27 0.27 78 1011.9
20260509213002 53 140 2.0 4.0 0.00 0.27 0.27 76 1011.9
20260509211602 54 155 2.0 4.0 0.00 0.27 0.27 76 1011.9
20260509210002 55 161 2.0 4.0 0.00 0.27 0.27 74 1011.9
20260509204603 56 167 0.0 0.0 0.00 0.27 0.27 72 1012.0
20260509203005 56 163 0.0 0.0 0.00 0.27 0.27 70 1012.0
20260509201603 57 180 1.0 3.0 0.00 0.27 0.27 68 1012.1
20260509200002 58 65 0.0 2.0 0.00 0.27 0.27 66 1012.1
20260509194602 59 360 1.0 3.0 0.00 0.27 0.27 64 1012.0
20260509193006 60 360 1.0 3.0 0.00 0.27 0.27 61 1012.0
20260509191603 62 360 0.0 2.0 0.00 0.27 0.27 60 1011.9
20260509190003 63 349 1.0 3.0 0.00 0.27 0.27 57 1011.7
20260509184602 64 119 0.0 2.0 0.00 0.27 0.27 54 1011.8
20260509183003 64 360 0.0 4.0 0.00 0.27 0.27 55 1011.7
20260509181603 65 360 3.0 5.0 0.00 0.27 0.27 52 1011.4
20260509180003 66 24 2.0 7.0 0.00 0.27 0.27 50 1011.3
20260509174602 67 313 2.0 5.0 0.00 0.27 0.27 49 1011.4
20260509173013 68 22 2.0 4.0 0.00 0.27 0.27 48 1011.4
20260509171607 68 13 4.0 8.0 0.00 0.27 0.27 45 1011.5
20260509170004 68 59 3.0 9.0 0.00 0.27 0.27 44 1011.4
20260509164607 69 306 4.0 8.0 0.00 0.27 0.27 45 1011.4
20260509163002 69 355 4.0 8.0 0.00 0.27 0.27 41 1011.4
20260509161602 70 331 4.0 8.0 0.00 0.27 0.27 41 1011.6
20260509160003 68 325 3.0 10.0 0.00 0.27 0.27 43 1011.7
20260509154602 69 32 4.0 10.0 0.00 0.27 0.27 44 1011.8
20260509153005 69 5 6.0 11.0 0.00 0.27 0.27 44 1012.1
20260509151626 69 355 4.0 8.0 0.00 0.27 0.27 43 1012.2
20260509150008 69 41 2.0 8.0 0.00 0.27 0.27 43 1012.3
20260509144604 68 15 3.0 9.0 0.00 0.27 0.27 43 1012.4
20260509143005 69 333 5.0 10.0 0.00 0.27 0.27 43 1012.6
20260509141605 71 347 2.0 10.0 0.00 0.27 0.27 42 1012.7
20260509140002 70 327 2.0 10.0 0.00 0.27 0.27 43 1012.9
20260509134604 70 281 3.0 10.0 0.00 0.27 0.27 44 1013.1
20260509133002 69 301 2.0 10.0 0.00 0.27 0.27 45 1013.3
20260509131608 70 15 3.0 7.0 0.00 0.27 0.27 44 1013.3
20260509130008 68 18 3.0 8.0 0.00 0.27 0.27 46 1013.5
20260509124603 68 332 2.0 7.0 0.00 0.27 0.27 48 1013.7
20260509123002 69 273 3.0 10.0 0.00 0.27 0.27 43 1013.7
20260509121602 67 284 4.0 11.0 0.00 0.27 0.27 47 1013.9
20260509120007 67 288 4.0 9.0 0.00 0.27 0.27 48 1014.0
20260509114628 67 340 6.0 11.0 0.00 0.27 0.27 48 1014.1
20260509113003 67 292 4.0 8.0 0.00 0.27 0.27 50 1014.1
20260509111602 67 5 2.0 10.0 0.00 0.27 0.27 51 1014.3
20260509110002 67 291 4.0 14.0 0.00 0.27 0.27 54 1014.5
20260509104602 67 324 5.0 10.0 0.00 0.27 0.27 48 1014.6
20260509103002 66 10 5.0 13.0 0.00 0.27 0.27 51 1014.8
20260509101604 67 42 4.0 8.0 0.00 0.27 0.27 52 1014.8
20260509100003 66 300 4.0 10.0 0.00 0.27 0.27 52 1014.9
20260509094608 65 329 3.0 8.0 0.00 0.27 0.27 51 1014.9
20260509093002 64 319 5.0 9.0 0.00 0.27 0.27 54 1015.0
20260509091603 63 288 4.0 8.0 0.00 0.27 0.27 59 1015.1